Theta_e
322 322 319 319 320 320 321 321 323 326 325 323 323 323 323 323 324 324 325 326 326 325 323 324 320 317 323 340 342 348 348 346 347 345 344 344 344 346
320 322 321 320 319 319 319 320 321 322 324 321 321 321 323 323 323 323 325 324 325 325 323 326 331 338 335 333 336 338 347 349 346 346 345 344 344 345
323 323 323 323 321 320 320 319 320 320 322 321 321 321 322 322 322 322 322 322 323 323 323 323 323 326 330 332 338 339 339 344 348 348 346 345 344 344
322 323 323 322 323 320 319 319 321 321 322 322 321 321 321 321 321 321 321 321 321 323 323 323 325 326 324 324 322 341 343 343 343 346 350 350 347 345
323 323 323 323 322 321 319 319 320 320 320 321 321 320 320 321 320 320 319 320 321 321 321 322 323 326 328 329 332 339 348 346 346 345 347 350 350 346
323 323 324 323 322 320 317 318 319 320 320 320 320 319 319 319 319 319 320 320 320 321 321 321 321 323 324 325 327 331 335 339 337 338 338 344 350 347
325 325 323 322 319 317 315 315 318 318 319 319 319 319 318 319 319 318 318 318 319 320 320 320 322 323 325 328 330 329 328 327 330 334 340 344 347 350
325 324 324 323 320 316 315 315 315 317 318 319 319 318 318 318 318 318 317 317 318 318 319 319 320 321 322 324 326 327 325 327 328 330 330 330 330 332
325 324 324 321 320 318 314 314 317 318 318 319 319 319 318 318 317 316 316 315 316 315 316 317 318 320 321 322 322 322 322 323 323 325 327 329 327 325
326 325 325 324 320 316 312 313 317 319 319 318 318 317 317 317 317 317 316 315 314 314 315 319 319 320 321 322 322 322 322 323 323 324 325 324 325 326
324 325 325 324 319 313 310 312 313 315 315 316 317 318 318 317 317 316 316 316 317 318 318 319 319 320 320 321 322 322 323 322 322 322 322 322 322 323
321 322 323 322 317 309 310 311 313 313 311 315 317 319 320 320 318 317 317 318 317 317 319 319 319 320 322 321 323 324 324 324 325 325 325 328 331 330
320 320 320 321 317 310 308 311 313 308 312 315 315 315 315 315 318 319 318 318 318 317 317 319 320 320 321 322 322 323 322 323 324 325 325 325 325 328
322 321 321 321 318 311 310 311 309 309 314 315 315 315 315 315 314 317 318 320 319 318 319 318 321 322 322 323 323 322 322 322 322 323 324 325 326 327
320 321 321 320 319 312 312 313 310 314 315 315 315 315 315 315 315 315 315 317 319 320 320 319 319 320 321 323 323 322 322 323 322 323 324 324 326 327
322 322 321 320 319 318 315 315 315 315 315 314 315 315 315 315 315 315 315 315 316 319 319 321 321 320 321 322 322 323 323 323 323 324 323 324 324 328
319 319 320 322 322 321 319 318 317 316 315 315 315 315 315 315 315 314 315 315 315 315 318 318 318 319 317 318 320 321 322 324 323 324 324 323 324 325
316 319 320 321 321 321 320 319 318 317 316 316 315 315 316 316 316 315 315 315 315 315 315 317 318 319 318 318 320 321 322 323 323 324 325 325 324 324
314 318 320 321 321 321 321 319 319 318 318 317 316 316 316 316 315 315 315 315 315 314 315 315 317 319 321 320 318 321 321 321 323 324 325 324 324 325
317 319 321 321 322 322 321 320 320 319 318 318 317 316 316 315 316 316 315 315 315 314 315 314 315 319 321 321 319 319 322 321 323 325 326 325 326 327
321 321 321 322 322 322 322 322 321 320 320 319 318 317 315 316 315 315 315 315 314 315 315 314 313 315 317 319 321 321 323 324 324 324 326 328 329 329
322 322 322 322 322 323 323 322 322 321 320 320 319 317 316 316 315 314 314 314 315 314 315 313 313 313 317 319 320 319 324 325 325 326 326 324 326 330
320 320 320 320 319 319 318 318 317 318 318 319 318 317 316 316 315 313 312 312 313 313 314 313 312 312 317 318 318 319 321 325 325 322 322 322 323 324
Wind_Speed
7 7 6 6 6 7 8 8 9 9 11 10 14 16 21 22 23 24 24 26 30 29 26 26 24 24 23 23 22 21 21 26 30 29 28 26 25 23
4 6 6 6 7 7 9 10 10 13 11 21 23 24 25 25 26 25 25 30 29 29 27 23 23 21 21 23 26 26 26 25 27 32 33 31 29 27
3 5 6 7 9 9 10 11 12 13 17 26 24 26 28 27 28 27 27 27 28 28 27 31 32 31 31 28 26 27 28 29 28 28 32 35 34 32
4 6 6 8 10 10 13 13 14 14 17 23 27 27 28 28 29 31 28 29 28 29 28 27 25 24 23 25 30 28 30 31 32 32 31 31 35 37
6 9 9 10 11 13 15 14 16 16 19 23 28 27 28 28 29 30 30 31 27 26 27 26 26 24 24 25 23 26 24 25 26 29 32 33 32 36
10 11 12 12 13 14 16 16 16 18 20 22 25 28 26 27 29 31 31 28 30 27 27 28 28 28 26 25 30 30 30 30 28 26 27 30 32 31
13 13 13 13 16 13 15 16 17 19 21 22 26 27 28 28 28 29 29 30 30 28 29 28 26 25 24 21 21 23 26 29 31 29 25 23 27 30
15 14 14 14 12 14 16 17 19 19 22 24 26 25 28 28 27 25 26 24 19 27 20 28 26 27 24 24 24 28 26 23 20 18 17 17 17 19
15 15 14 13 13 12 16 19 20 20 21 23 25 25 27 28 28 27 25 25 26 28 29 31 28 28 26 26 26 27 31 31 30 30 29 29 28 25
17 16 16 15 13 12 15 18 19 20 21 21 21 25 29 29 27 28 29 29 28 27 23 27 25 25 24 24 25 27 30 28 30 31 31 33 32 30
18 17 16 15 13 15 12 15 21 22 19 21 26 25 26 27 26 24 20 18 20 22 20 23 24 25 24 25 27 27 27 28 31 32 34 35 34 33
19 17 19 18 16 13 12 11 15 20 23 21 20 20 19 20 20 18 23 19 18 15 8 15 22 24 19 25 21 15 19 19 15 18 21 22 22 27
20 19 18 17 17 14 14 14 13 20 20 19 20 19 19 19 18 15 17 19 19 22 28 26 24 25 22 27 27 25 24 27 25 23 24 25 26 24
21 21 20 18 20 18 17 16 18 17 16 19 19 19 19 20 21 21 18 17 21 28 29 28 26 27 28 26 26 28 23 26 28 27 26 25 23 23
22 21 23 24 24 25 23 18 16 13 15 17 18 19 20 20 22 20 20 19 18 20 21 23 27 29 28 29 29 30 29 24 25 28 26 26 25 24
18 19 21 22 25 25 25 20 17 16 14 16 17 19 19 20 21 22 22 22 23 23 19 19 19 22 29 30 29 31 32 26 25 24 27 27 28 27
25 24 25 24 23 23 23 22 20 19 17 17 17 18 19 20 20 22 22 24 23 23 25 24 24 25 27 30 32 32 32 33 30 26 25 29 30 30
20 22 23 25 25 25 25 24 22 21 20 19 18 19 19 20 20 23 22 23 24 24 24 26 28 28 27 28 25 32 30 32 34 32 28 28 31 30
20 23 25 26 26 25 25 26 25 25 21 20 20 20 19 20 21 22 23 23 25 28 28 27 29 26 11 13 29 23 32 34 33 32 32 27 30 30
22 24 25 26 26 26 26 26 27 26 25 25 22 22 21 21 22 23 22 23 25 29 28 27 26 25 21 18 17 34 27 33 30 28 25 26 27 29
23 24 25 25 25 26 26 24 23 27 29 29 26 25 23 22 22 23 25 24 24 26 27 28 29 30 34 31 19 23 25 29 33 29 25 22 22 23
24 21 22 24 25 23 22 22 21 23 25 25 27 29 28 24 24 22 22 25 25 26 29 32 30 30 31 26 21 29 25 23 22 24 25 26 12 4
16 16 12 17 21 18 21 20 22 23 25 23 23 25 31 23 22 22 23 22 23 27 29 30 29 29 28 29 26 27 27 23 18 13 16 21 25 29
Wind_Direction
63 57 49 22 3 352 333 324 316 311 312 305 319 316 311 311 308 309 305 303 294 293 299 298 292 273 267 265 265 259 256 248 245 244 246 251 254 256
53 48 33 14 353 336 330 316 306 303 298 305 307 310 311 309 309 308 305 303 302 296 296 296 287 281 276 270 261 260 258 255 251 246 246 245 248 252
13 17 4 350 344 332 323 313 305 301 297 300 305 307 306 306 307 308 306 303 299 295 290 287 282 273 273 271 268 264 258 258 254 251 248 247 246 246
333 333 336 334 329 325 324 311 303 297 293 299 302 305 306 305 305 307 307 302 298 293 292 295 296 294 287 278 269 266 262 258 257 254 252 252 249 245
314 312 319 320 322 319 317 308 308 305 302 300 301 302 302 304 306 304 305 302 298 297 296 294 295 294 291 284 280 264 261 257 258 258 255 252 253 249
302 306 311 310 307 309 314 305 298 307 303 299 303 305 306 308 305 305 307 307 302 299 298 297 291 285 282 280 273 270 272 270 270 266 264 257 252 251
291 292 298 293 297 301 302 302 301 300 306 308 305 306 304 306 305 303 298 302 302 301 300 300 295 288 283 277 268 269 274 269 266 266 265 260 254 249
280 287 292 288 310 313 305 291 288 290 296 300 304 299 295 297 299 299 299 299 300 303 298 300 298 292 285 278 272 278 283 289 290 274 259 259 261 258
271 277 282 296 308 308 308 301 298 295 288 295 294 300 301 299 297 291 287 289 290 291 294 289 290 285 284 280 277 279 282 281 279 277 273 267 272 271
268 270 270 278 292 290 309 308 305 305 303 301 303 301 301 299 295 289 287 291 287 289 280 278 287 285 286 284 280 278 278 275 279 278 275 271 267 264
275 268 263 266 278 292 311 314 308 303 311 309 309 306 313 310 305 300 285 287 290 299 292 276 290 291 291 288 287 283 276 267 268 269 268 267 267 264
288 272 264 261 263 289 298 299 301 307 312 312 312 311 317 315 315 303 283 281 293 303 319 310 298 300 300 291 278 307 305 289 274 272 272 275 269 261
287 286 277 260 260 273 280 279 282 304 307 305 316 318 320 321 323 317 300 287 274 265 283 299 296 290 282 283 282 278 281 284 284 282 272 265 260 255
271 280 281 272 263 269 275 275 292 304 300 312 313 320 325 327 327 319 321 308 290 277 288 290 289 288 288 288 290 290 283 280 281 277 275 275 269 261
260 265 263 263 261 268 270 261 285 278 294 304 313 323 324 324 320 322 325 322 319 307 296 286 283 287 291 288 286 285 285 278 268 277 276 269 272 260
278 275 274 271 258 256 266 266 254 268 281 291 304 313 317 322 326 330 327 327 326 327 324 311 297 292 288 282 283 284 278 275 277 272 271 272 267 269
281 277 273 267 263 261 254 258 262 264 266 278 288 299 306 315 323 334 328 326 325 334 323 325 324 309 306 293 276 268 274 275 270 271 263 264 265 254
278 268 267 268 265 263 262 264 264 262 262 267 275 285 297 308 317 320 326 331 324 323 320 323 324 319 309 310 284 265 267 268 274 271 268 267 266 258
262 267 267 268 264 262 263 263 263 262 262 261 269 277 286 294 302 313 318 323 328 326 320 321 324 320 314 311 310 273 246 255 264 265 263 254 257 260
259 264 270 269 266 265 264 264 266 266 261 257 262 267 275 286 295 301 310 317 321 323 318 322 322 324 321 310 300 293 253 239 254 259 262 258 258 266
288 289 280 268 266 270 273 275 275 272 272 276 272 262 269 275 281 292 302 309 313 314 321 320 322 316 317 317 311 301 273 256 248 257 266 266 268 262
289 289 292 289 286 284 279 281 282 282 277 272 265 265 267 269 275 282 293 305 310 314 313 316 320 321 321 323 320 316 295 280 271 262 259 254 254 250
300 313 320 322 321 320 332 326 325 320 314 308 294 289 287 284 272 276 284 295 306 304 309 312 318 318 319 318 325 317 317 288 282 247 260 259 254 256